Find Kosmos-2548

NORAD ID: 47230 Int'l Des: 2020-091 Owner: MORF Country: RU operational
LEOCIRCULARPOLAR

現在のビュー

3D地球を読み込み中...

Kosmos-2548について

説明を読み込み中...

次回通過

Passes for default location (London). Set your location on the main map for personalized predictions.

高度履歴

Loading altitude history...

軌道要素

1 47230U 20091D 26150.13698897 -.00000128 00000-0 -99669-3 0 9998
2 47230 82.4985 312.8772 0014332 230.6659 129.3151 12.42928974248811
Epoch: May 30, 2026 • Age: 9 hours

現在のステータス

高度 1491.2 km
速度 7.12 km/s
衛星直下点 -17.19°S, 65.85°E
打ち上げ日 Dec 3, 2020
運用期間 5.4 years
タイプ other

技術仕様

分類 Payload
質量 4.00 kg
乾燥質量 4.00 kg
総質量 4.00 kg
長さ 0.30 m
直径 0.10 m
スパン 0.30 m
形状 Box
製造者 TSKHM
バスタイプ Cubesat 3U
フェーズステータス In Orbit
所有者/国 MORF/RU

Most Searched